Location: New Plymouth
(39.0670°S, 174.0830°E)
Time: 10:29:53
(UTC+12:00)

NOAA 19 - Pass Details

Date: 22 August 2019
Orbit: 840 x 862 km, 99.2° (Epoch: 20 September)

Event Time Altitude Azimuth Distance (km) Brightness Sun altitude
Rises 04:44:24 0° 20° (NNE) 3,386 8.5 -27.4°
Reaches altitude 10° 04:46:45 10° 21° (NNE) 2,459 7.8 -26.9°
Maximum altitude 04:52:12 77° 106° (ESE) 876 5.3 -25.9°
Drops below altitude 10° 04:57:44 10° 191° (S) 2,496 7.6 -24.8°
Sets 05:00:07 0° 192° (SSW) 3,441 8.3 -24.3°
